Weather History for Flag Island, MN

Change the Weather History Date:

Wednesday, December 12, 2012

  Actual Average Record
Temperature  
Mean Temperature 0 °F -  
Max Temperature 10 °F 20 °F 37 °F (1998)
Min Temperature -11 °F 7 °F -29 °F (2000)
Degree Days  
Heating Degree Days 66    
Moisture  
Dew Point 0 °F    
Average Humidity 83    
Maximum Humidity 92    
Minimum Humidity 77    
Precipitation  
Precipitation 0.00 in - - ()
Sea Level Pressure  
Sea Level Pressure 29.88 in    
Wind  
Wind Speed 5 mph (ENE)    
Max Wind Speed 12 mph    
Max Gust Speed 18 mph    
Visibility 6 miles    
Events Snow    
Averages and records for this station are not official NWS values.
T = Trace of Precipitation, MM = Missing Value Source: NWS Daily Summary

Daily Weather History Graph

Daily Weather History Graph

Search for Another Location

Airport:

Trip Planner

Search our weather history database for the weather conditions in past years. The results will help you decide how hot, cold, wet, or windy it might be!

Date:

Astronomy

Dec. 12, 2012 Rise Set
Actual Time 8:06 AM CST 4:20 PM CST
Civil Twilight 7:28 AM CST 4:58 PM CST
Nautical Twilight 6:48 AM CST 5:39 PM CST
Astronomical Twilight 6:09 AM CST 6:17 PM CST
Moon 7:09 AM CST (12/12) 4:00 PM CST (12/12)
Length of Visible Light 9h 29m
Length of Day
8h 14m
Waning Crescent, 1% of the Moon is Illuminated
Dec 12
Waning Crescent
Dec 13
New
Dec 19
First Quarter
Dec 28
Full
Jan 4
Last Quarter

Hourly Weather History & Observations

Time (CST) Temp. Windchill Dew Point Humidity Pressure Visibility Wind Dir Wind Speed Gust Speed Precip Events Conditions
12:13 AM -11.2 °F - -16.6 °F 77% 29.93 in 10.0 mi Calm Calm - N/A   Clear
12:33 AM -11.2 °F - -16.6 °F 77% 29.93 in 10.0 mi Calm Calm - N/A   Clear
12:53 AM -9.4 °F - -14.8 °F 77% 29.93 in 10.0 mi Calm Calm - N/A   Clear
1:13 AM -9.4 °F - -14.8 °F 77% 29.92 in 10.0 mi Calm Calm - N/A   Clear
1:53 AM -7.6 °F -16.5 °F -11.2 °F 84% 29.93 in 10.0 mi ESE 3.5 mph - N/A   Mostly Cloudy
2:14 AM -7.6 °F - -11.2 °F 84% 29.93 in 10.0 mi Calm Calm - N/A   Mostly Cloudy
2:33 AM -5.8 °F -16.7 °F -11.2 °F 77% 29.94 in 10.0 mi ESE 4.6 mph - N/A   Overcast
2:53 AM -5.8 °F -16.7 °F -9.4 °F 84% 29.93 in 10.0 mi ESE 4.6 mph - N/A   Overcast
3:14 AM -4.0 °F -14.6 °F -9.4 °F 78% 29.93 in 10.0 mi ESE 4.6 mph - N/A   Overcast
3:53 AM -2.2 °F -12.5 °F -7.6 °F 78% 29.92 in 10.0 mi ESE 4.6 mph - N/A   Overcast
4:14 AM -2.2 °F -15.6 °F -7.6 °F 78% 29.91 in 10.0 mi East 6.9 mph - N/A   Overcast
4:33 AM -2.2 °F -12.5 °F -7.6 °F 78% 29.91 in 10.0 mi ESE 4.6 mph - N/A   Overcast
4:53 AM -2.2 °F -16.8 °F -7.6 °F 78% 29.91 in 7.0 mi East 8.1 mph - N/A Snow Light Snow
5:13 AM -2.2 °F -18.0 °F -7.6 °F 78% 29.91 in 2.5 mi ESE 9.2 mph - N/A Snow Light Snow
5:53 AM -2.2 °F -15.6 °F -5.8 °F 85% 29.89 in 3.0 mi East 6.9 mph - N/A Snow Light Snow
6:13 AM -0.4 °F -12.0 °F -5.8 °F 78% 29.88 in 2.0 mi East 5.8 mph - N/A Snow Light Snow
6:34 AM -0.4 °F -14.7 °F -5.8 °F 78% 29.89 in 2.5 mi East 8.1 mph - N/A Snow Light Snow
6:53 AM -0.4 °F -13.4 °F -5.8 °F 78% 29.88 in 3.0 mi East 6.9 mph - N/A Snow Light Snow
7:13 AM -0.4 °F -10.4 °F -4.0 °F 85% 29.89 in 2.0 mi East 4.6 mph - N/A Snow Light Snow
7:34 AM 1.4 °F -9.9 °F -2.2 °F 85% 29.88 in 1.5 mi East 5.8 mph - N/A Snow Light Snow
7:53 AM 1.4 °F -13.5 °F -2.2 °F 85% 29.87 in 1.8 mi East 9.2 mph - N/A Snow Light Snow
8:13 AM 1.4 °F -11.3 °F -2.2 °F 85% 29.87 in 1.0 mi ESE 6.9 mph - N/A Snow Light Snow
8:34 AM 3.2 °F -10.3 °F -2.2 °F 78% 29.86 in 1.2 mi ESE 8.1 mph - N/A Snow Light Snow
8:53 AM 3.2 °F -13.1 °F -0.4 °F 85% 29.86 in 0.8 mi ESE 11.5 mph 18.4 mph N/A Snow Light Snow
9:13 AM 3.2 °F -11.3 °F -0.4 °F 85% 29.85 in 1.0 mi East 9.2 mph 16.1 mph N/A Snow Light Snow
9:34 AM 5.0 °F -8.1 °F -0.4 °F 78% 29.85 in 1.5 mi East 8.1 mph - N/A Snow Light Snow
9:53 AM 5.0 °F -10.0 °F 1.4 °F 85% 29.84 in 1.8 mi East 10.4 mph 18.4 mph N/A Snow Light Snow
10:13 AM 6.8 °F -6.9 °F 1.4 °F 79% 29.84 in 4.0 mi East 9.2 mph - N/A Snow Light Snow
11:13 AM 6.8 °F -3.5 °F 3.2 °F 85% 29.84 in 2.0 mi East 5.8 mph - N/A Snow Light Snow
11:33 AM 8.6 °F -2.6 °F 3.2 °F 79% 29.83 in 2.0 mi East 6.9 mph - N/A Snow Light Snow
11:53 AM 8.6 °F -3.7 °F 3.2 °F 79% 29.82 in 10.0 mi East 8.1 mph - N/A Snow Light Snow
12:14 PM 8.6 °F 0.1 °F 3.2 °F 79% 29.82 in 5.0 mi East 4.6 mph - N/A Snow Light Snow
12:53 PM 10.4 °F 2.2 °F 5.0 °F 79% 29.81 in 5.0 mi East 4.6 mph - N/A Snow Light Snow
1:13 PM 10.4 °F -0.4 °F 5.0 °F 79% 29.80 in 4.0 mi East 6.9 mph - N/A Snow Light Snow
1:33 PM 10.4 °F -0.4 °F 6.8 °F 85% 29.81 in 3.0 mi ESE 6.9 mph - N/A Snow Light Snow
1:53 PM 10.4 °F 4.0 °F 6.8 °F 85% 29.80 in 3.0 mi East 3.5 mph - N/A Snow Light Snow
2:13 PM 10.4 °F 4.0 °F 6.8 °F 85% 29.81 in 2.0 mi East 3.5 mph - N/A Snow Light Snow
2:34 PM 10.4 °F 4.0 °F 6.8 °F 85% 29.81 in 1.8 mi ENE 3.5 mph - N/A Snow Light Snow
2:53 PM 10.4 °F 2.2 °F 6.8 °F 85% 29.81 in 2.0 mi ENE 4.6 mph - N/A Snow Light Snow
3:13 PM 10.4 °F 2.2 °F 6.8 °F 85% 29.81 in 2.5 mi ENE 4.6 mph - N/A Snow Light Snow
3:34 PM 10.4 °F 4.0 °F 6.8 °F 85% 29.82 in 1.8 mi NE 3.5 mph - N/A Snow Light Snow
3:53 PM 10.4 °F 4.0 °F 6.8 °F 85% 29.83 in 3.0 mi NE 3.5 mph - N/A Snow Light Snow
4:13 PM 10.4 °F 2.2 °F 6.8 °F 85% 29.84 in 2.5 mi NE 4.6 mph - N/A Snow Light Snow
4:33 PM 10.4 °F -0.4 °F 6.8 °F 85% 29.85 in 3.0 mi NNE 6.9 mph - N/A Snow Light Snow
4:53 PM 10.4 °F 0.8 °F 6.8 °F 85% 29.85 in 5.0 mi NNE 5.8 mph - N/A Snow Light Snow
5:13 PM 10.4 °F -0.4 °F 6.8 °F 85% 29.86 in 7.0 mi NNE 6.9 mph - N/A Snow Light Snow
5:33 PM 10.4 °F 0.8 °F 6.8 °F 85% 29.86 in 5.0 mi NE 5.8 mph - N/A Snow Light Snow
5:54 PM 10.4 °F -0.4 °F 6.8 °F 85% 29.87 in 5.0 mi NNE 6.9 mph - N/A Snow Light Snow
6:54 PM 10.4 °F -0.4 °F 6.8 °F 85% 29.89 in 10.0 mi NNE 6.9 mph - N/A Snow Light Snow
7:13 PM 10.4 °F 4.0 °F 6.8 °F 85% 29.88 in 7.0 mi NNE 3.5 mph - N/A Snow Light Snow
7:54 PM 8.6 °F -1.3 °F 6.8 °F 92% 29.90 in 10.0 mi North 5.8 mph - N/A Snow Light Snow
8:13 PM 8.6 °F -2.6 °F 6.8 °F 92% 29.91 in 10.0 mi North 6.9 mph - N/A   Overcast
8:53 PM 8.6 °F -3.7 °F 6.8 °F 92% 29.92 in 10.0 mi North 8.1 mph - N/A Snow Light Snow
9:14 PM 8.6 °F -2.6 °F 6.8 °F 92% 29.92 in 5.0 mi North 6.9 mph - N/A Snow Light Snow
9:33 PM 8.6 °F -2.6 °F 6.8 °F 92% 29.92 in 5.0 mi North 6.9 mph - N/A Snow Light Snow
9:54 PM 8.6 °F -3.7 °F 6.8 °F 92% 29.92 in 10.0 mi North 8.1 mph - N/A   Overcast
10:13 PM 8.6 °F -4.7 °F 6.8 °F 92% 29.93 in 7.0 mi North 9.2 mph - N/A Snow Light Snow
10:54 PM 8.6 °F -3.7 °F 5.0 °F 85% 29.94 in 10.0 mi North 8.1 mph - N/A   Overcast
11:13 PM 8.6 °F -4.7 °F 5.0 °F 85% 29.94 in 10.0 mi North 9.2 mph - N/A Snow Light Snow
11:33 PM 8.6 °F -2.6 °F 5.0 °F 85% 29.95 in 10.0 mi North 6.9 mph - N/A   Overcast
11:54 PM 8.6 °F -1.3 °F 5.0 °F 85% 29.96 in 10.0 mi North 5.8 mph - N/A   Overcast